Showing default

OPS 9348 (IDSCS 26), 3291

Orbit data source: Space-Track

OPS 9348 (IDSCS 26), 3291 is a payload satellite owned by SAMSO (US) in GEO that was launched on Thu, 13 Jun 1968 UTC via a TITAN IIIC launch vehicle from the Air Force Eastern Test Range (AFETR). Payload-class satellites include a variety of spacecraft equipped with specific instruments for various scientific and technological missions. These include communications satellites like Starlink; space stations such as the ISS; scientific satellites like the Hubble; Earth observation satellites from companies like Planet Labs, Umbra, and HawkEye 360; GPS; miniature CubeSats for education and research; and military/defense satellites.

Loading next visibility...
Identifier
3291, 1968-050H
Orbit
GEO
Last TLE update
21 hours ago
Origin
Manufacturer
Philco-Ford
Mission
Non-operational Defense Communications
Bus & Motor
IDCSP, Unknown motor
Mass
45 kg wet, 45 kg dry
Launch date (UTC)
1968-06-13 (57 years ago)
Launch vehicle
TITAN IIIC
Launch site
Air Force Eastern Test Range (AFETR)
Object type
Payload
Rocket body
Debris
Shape & HBR
Poly, 0.9 m
Radar Cross Section
0.926 m², Medium (>0.1 m² and < 1m²)

Expand to show TLE details & history

TLE from 21 hours ago
0 OPS 9348 (IDSCS 26)
1 03291U 68050H   25128.36002919 -.00000117  00000-0  00000-0 0  9992
2 03291   6.0604  58.4886 0073853 121.7200  62.4567  1.06767856221709
Epoch: 2025-05-08T08:38Z
Definitive object data (Epoch: 2025-05-08T08:38:26.522Z)
Latitude
-0.53146°
Longitude
-112.6465°
Altitude
33,920.441 km
Speed
3.15 km/s
True Right ascension
16h 13m 34s
True Declination
0° 31' 51"
Sunlit
Object was in daylight at TLE epoch
Visualization TLE readout
Latitude
2.1152°
Longitude
-138.06822°
Altitude
33,819.507 km
Speed
3.158 km/s
Apparent Right ascension
14h 38m 52s
Apparent Declination
-4° 10' 54"
Sunlit
Object is in daylight
Visualization observer readout
Local Sidereal Time
13:40:59
Azimuth
159.749° S
Elevation
43.938°
Doppler factor
1
Orbital elements
Apogee altitude
34,358.222 km
Perigee altitude
33,760.932 km
Semi-major axis
40,437.714 km
Eccentricity
0.0073853
Inclination
6.0604°
RAAN
58.4886°
Arg. of periapsis
121.72°
True anomaly
63.21027°
Mean anomaly
62.4567°
Eccentric anomaly
62.83317°
Mean motion
0.26691 °/min
BSTAR
Unknown
Orbital period
1348.77 mins
Loading historical data...
3291 neighbors
Loading maneuver chart data...
Loading SW <> Apogee altitude chart data...
Loading historical data...
Loading historical data...
Loading historical data...
Loading historical data...
Loading historical data...
Loading historical data...
Loading historical data...

OPS 9348 (IDSCS 26) Visibility forecast

Observer location: undefined°, undefined°

Span
Click to sort rows by Start time (UTC) header in descending order
Start Az.
Max El. time (UTC)
Max El. Az.
Max El.
End time (UTC)
End Az.
1440 mins2025-05-09 05:32:18.265Z159.757° S2025-05-09 05:32:18.265Z159.757° S34.748°2025-05-10 05:32:18.265Z131.529° SE
|